Location: Branche des Alpilles
(43.6087°N, 4.6976°E)
Time: 05:41:34
(UTC+00:00)

Envisat - Pass Details

Date: 07 October 2021
Orbit: 764 x 766 km, 98.2° (Epoch: 23 October)

Event Time Altitude Azimuth Distance (km) Brightness Sun altitude
Rises 04:50:24 0° 13° (NNE) 3,240 6.5 -10.8°
Reaches altitude 10° 04:52:43 10° 15° (NNE) 2,310 5.7 -10.4°
Maximum altitude 04:57:50 82° 103° (ESE) 777 3.1 -9.5°
Drops below altitude 10° 05:02:53 10° 191° (SSW) 2,293 5.4 -8.6°
Sets 05:05:11 0° 193° (SSW) 3,215 6.1 -8.2°
